Weather History for Kars, Turkey

Change the Weather History Date:

Tuesday, October 2, 2012

  Actual Average Record
Temperature  
Mean Temperature 56 °F -  
Max Temperature 77 °F 55 °F - ()
Min Temperature 36 °F 31 °F - ()
Degree Days  
Heating Degree Days 8    
Growing Degree Days 6 (Base 50)    
Moisture  
Dew Point 32 °F    
Average Humidity 40    
Maximum Humidity 70    
Minimum Humidity 17    
Precipitation  
Precipitation 0.00 in 0.05 in - ()
Sea Level Pressure  
Sea Level Pressure 30.38 in    
Wind  
Wind Speed 2 mph ()    
Max Wind Speed 10 mph    
Max Gust Speed -    
Visibility 6.1 miles    
Events      
T = Trace of Precipitation, MM = Missing Value Source: Averaged Metar Reports

Daily Weather History Graph

Daily Weather History Graph

Search for Another Location

Airport:

Trip Planner

Search our weather history database for the weather conditions in past years. The results will help you decide how hot, cold, wet, or windy it might be!

Date:

Astronomy

Oct. 02, 2012 Rise Set
Actual Time 6:05 AM EEST 5:47 PM EEST
Civil Twilight 5:38 AM EEST 6:15 PM EEST
Nautical Twilight 5:06 AM EEST 6:46 PM EEST
Astronomical Twilight 4:34 AM EEST 7:18 PM EEST
Moon 6:46 PM EEST (10/2) 8:12 AM EEST (10/2)
Length of Visible Light 12h 37m
Length of Day
11h 42m
Waning Gibbous, 95% of the Moon is Illuminated
Oct 2
Waning Gibbous
Oct 8
Last Quarter
Oct 15
New
Oct 22
First Quarter
Oct 29
Full

Hourly Weather History & Observations

Time (EEST) Temp. Windchill Dew Point Humidity Pressure Visibility Wind Dir Wind Speed Gust Speed Precip Events Conditions
12:50 AM 50.0 °F - 33.8 °F 54% 30.45 in - Calm Calm - N/A   Clear
3:00 AM 44 °F - 29 °F 44%  in 6 mi Calm Calm - -  
3:50 AM 41.0 °F 37.1 °F 30.2 °F 65% 30.42 in - WNW 5.8 mph - N/A   Clear
4:50 AM 39.2 °F - 28.4 °F 65% 30.42 in - NW 2.3 mph - N/A   Clear
5:50 AM 37.4 °F - 28.4 °F 70% 30.45 in - Calm Calm - N/A   Clear
6:50 AM 39.2 °F 35.9 °F 30.2 °F 70% 30.45 in 6.2 mi NW 4.6 mph - N/A   Partly Cloudy
7:50 AM 44.6 °F - 30.2 °F 57% 30.45 in - Calm Calm - N/A   Clear
9:00 AM 54 °F - 33 °F 32%  in 6 mi Calm Calm - -  
9:50 AM 62.6 °F - 33.8 °F 34% 30.45 in - Calm Calm - N/A   Clear
10:50 AM 66.2 °F - 33.8 °F 30% 30.42 in - WNW 1.2 mph - N/A   Clear
11:50 AM 69.8 °F - 35.6 °F 28% 30.39 in - Variable 2.3 mph - N/A   Clear
12:50 PM 73.4 °F - 33.8 °F 23% 30.36 in 6.2 mi Variable 2.3 mph - N/A   Partly Cloudy
1:50 PM 75.2 °F - 32.0 °F 21% 30.33 in 6.2 mi Variable 3.5 mph - N/A   Scattered Clouds
2:50 PM 77.0 °F - 28.4 °F 17% 30.33 in 6.2 mi WSW 9.2 mph - N/A   Scattered Clouds
3:50 PM 75.2 °F - 32.0 °F 21% 30.33 in 6.2 mi NNW 9.2 mph - N/A   Scattered Clouds
4:50 PM 73.4 °F - 32.0 °F 22% 30.33 in 6.2 mi NE 6.9 mph - N/A   Partly Cloudy
5:50 PM 66.2 °F - 32.0 °F 28% 30.33 in 6.2 mi ESE 10.4 mph - N/A   Partly Cloudy
6:50 PM 60.8 °F - 32.0 °F 34% 30.33 in 6.2 mi East 4.6 mph - N/A   Partly Cloudy
8:50 PM 59.0 °F - 33.8 °F 39% 30.36 in - North 2.3 mph - N/A   Clear
9:00 PM 60 °F - 33 °F 24%  in 6 mi North 2.3 mph - -  
9:50 PM 57.2 °F - 33.8 °F 41% 30.36 in - NE 4.6 mph - N/A   Clear
10:50 PM 55.4 °F - 33.8 °F 44% 30.36 in - NE 3.5 mph - N/A   Clear
11:50 PM 51.8 °F - 32.0 °F 47% 30.33 in - Calm Calm - N/A   Clear